This is the latest recevied weather packets stored in our database for station/object N9BID. If no packets are shown the sender has not sent any weather packets the latest 10 day(s).
| Time | Temp. | Humidity | Pressure | Rain* | Wind** | Luminosity | Snow |
|---|---|---|---|---|---|---|---|
| 1777986154 | 4.44° C | 70% | 999.4 hPa | 0 mm | - | 216 W/m² | - |
| 1777985851 | 3.89° C | 74% | 999.4 hPa | 0 mm | - | 46 W/m² | - |
| 1777985548 | 3.89° C | 76% | 999.3 hPa | 0 mm | - | 154 W/m² | - |
| 1777985244 | 3.89° C | 78% | 999.2 hPa | 0 mm | - | 124 W/m² | - |
| 1777984941 | 3.33° C | 78% | 999.1 hPa | 0 mm | - | 41 W/m² | - |
| 1777984637 | 3.33° C | 78% | 998.8 hPa | 0 mm | - | 75 W/m² | - |
| 1777984334 | 3.33° C | 79% | 999.2 hPa | 0 mm | - | 65 W/m² | - |
| 1777984031 | 2.78° C | 79% | 999 hPa | 0 mm | - | 53 W/m² | - |
| 1777983728 | 2.78° C | 80% | 998.7 hPa | 0 mm | - | 48 W/m² | - |
| 1777983424 | 2.78° C | 81% | 999 hPa | 0 mm | - | 63 W/m² | - |
| 1777983121 | 2.22° C | 81% | 998.9 hPa | 0 mm | - | 46 W/m² | - |
| 1777982817 | 2.22° C | 81% | 998.8 hPa | 0 mm | - | 39 W/m² | - |
| 1777982513 | 2.22° C | 81% | 998.9 hPa | 0 mm | - | 32 W/m² | - |
| 1777982207 | 1.67° C | 81% | 998.8 hPa | 0 mm | - | 30 W/m² | - |
| 1777981905 | 1.67° C | 82% | 999 hPa | 0 mm | - | 28 W/m² | - |
| 1777981602 | 1.67° C | 82% | 998.8 hPa | 0 mm | - | 26 W/m² | - |
| 1777981298 | 1.67° C | 82% | 998.6 hPa | 0 mm | - | 25 W/m² | - |
| 1777980995 | 1.67° C | 82% | 998.3 hPa | 0 mm | - | 23 W/m² | - |
| 1777980691 | 1.67° C | 82% | 998.3 hPa | 0 mm | - | 20 W/m² | - |
| 1777980387 | 1.67° C | 82% | 998.3 hPa | 0 mm | - | 19 W/m² | - |
| 1777980086 | 1.11° C | 83% | 998.5 hPa | 0 mm | - | 16 W/m² | - |
| 1777979785 | 1.11° C | 83% | 998.2 hPa | 0 mm | - | 14 W/m² | - |
| 1777979481 | 1.11° C | 83% | 998.2 hPa | 0 mm | - | 12 W/m² | - |
| 1777979178 | 1.11° C | 83% | 998.1 hPa | 0 mm | - | 10 W/m² | - |
| 1777978875 | 1.11° C | 83% | 998.1 hPa | 0 mm | - | 7 W/m² | - |
* Rain latest hour (hover to see other rain measurements)
** Current wind speed in m/s (hover to see current wind gust speed)